Location: Poughquag
(41.6090°N, 73.6820°W)
Time: 08:50:18
(UTC-05:00)

Altair - Pass Details

Date: 02 December 2023
Orbit: 1501 x 1682 km, 47.2° (Epoch: 02 March)

Event Time Altitude Azimuth Distance (km) Brightness Sun altitude
Rises 17:36:08 0° 284° (WNW) 4,639 11.1 -13.0°
Reaches altitude 10° 17:42:15 10° 254° (WSW) 3,649 10.9 -14.1°
Maximum altitude 17:44:39 11° 238° (WSW) 3,552 10.7 -14.5°
Drops below altitude 10° 17:47:02 10° 222° (SW) 3,653 10.4 -14.9°
Sets 17:53:15 0° 191° (SSW) 4,654 10.4 -16.0°
